Weather in Morskoye

Russia / Kaliningrad Oblast     55°13′46″N   20°55′01″E
temp.,
°C
wind,
m/s
gust,
m/s
humid.,
%
clouds,
%
prec.,
mm/h
press.,
hPa
HPBL,
m
4 december, sat
sat423:00+2wsw6787100 0.2 1003671
02:00+3sw81097100 2.6 1002730
05:00+3sw111181100 0.4 1001882
08:00+1ssw101194100 0.6 1002696
11:00+1ssw8896100 1.3 1002573
14:00+2ssw6798100 2.0 1002421
17:00+3s6798100 2.6 1002479
20:00+4sw7895100 4.4 1002684
5 december, sun
sun523:00+5sw8891100 0.4 1003550
02:00+4sw8793100 0.6 1005544
05:00+4wsw449298 0.4 1005503
08:00+4ne1289100 0.6 1007336
11:00+1ene8798100 0.4 1009389
14:00+1ene9893100 0.9 1010495
17:000ene101092100 0.3 1012486
20:00−2ene101190100 0.4 1014481
6 december, mon
mon623:00−3ene101091100 0.1 1015458
02:00−4ene91092100 0.3 1016437
05:00−5ene9992100 0.0 1016436
08:00−5ene899198 0.1 1018447
11:00−5ene778997 0.0 1018441
14:00−5ne778799 0.0 1018485
17:00−5ne878253 0.0 1018564
20:00−5ne788313 0.0 1018498
7 december, tue
tue723:00−6ene668222 0.0 1018488
02:00−6ene668457 0.0 1017522
05:00−6ene668213 0.0 1017482
08:00−6ene78846 0.0 1017467
11:00−6e788229 0.0 1018423
14:00−6e67815 0.0 1018444
17:00−5e88795 0.0 1018478
20:00−6e89825 0.0 1019450
8 december, wed
wed823:00−6e99855 0.0 1020407
02:00−6e910811 0.0 1020401
05:00−6e911835 0.0 1019428
08:00−7e1011865 0.0 1020455
11:00−6e911844 0.0 1021433
14:00−6e99815 0.0 1020460
17:00−6e1011804 0.0 1020484
20:00−6e1013855 0.0 1020494